Flag for France

Past Weather in 48°42'40.3"N, 2°15'22.2"E, France — Yesterday and Last 2 Weeks

Now
68 °F

Passing clouds.


Feels Like: 68 °F
Forecast: 76 / 51 °F
Wind: 13 mph from Northwest

Location: Villacoublay

Current Time: Jul 6, 2020 at 3:31:09 pm

Latest Report: Jul 6, 2020 at 3:00 pm


Visibility: N/A

Pressure: 30.18 "Hg

Humidity: 43%

Dew Point: 45 °F

Location of 48°42'40.3"N, 2°15'22.2"ELocation

Past Weather in 48°42'40.3"N, 2°15'22.2"E — Graph

°F

48°42'40.3"N, 2°15'22.2"E Temperature Yesterday

Maximum temperature yesterday: 75 °F (at 4:00 pm)
Minimum temperature yesterday: 63 °F (at 3:30 am)
Average temperature yesterday: 68 °F

High & Low Weather Summary for the Past Weeks

 TemperatureHumidityPressure
High91 °F (Jun 25, 3:00 pm)100% (Jun 22, 2:30 am)30.36 "Hg (Jun 22, 2:30 am)
Low48 °F (Jun 22, 6:00 am)26% (Jun 24, 4:30 pm)29.80 "Hg (Jul 1, 4:30 am)
Average68 °F64%30.02 "Hg
* Reported Jun 21 2:00 pm — Jul 6 2:00 pm, 48°42'40.3"N, 2°15'22.2"E. Weather by CustomWeather, © 2020

Note: Actual official high and low records may vary slightly from our data, if they occured in-between our weather recording intervals... More about our weather records

48°42'40.3"N, 2°15'22.2"E Weather History for the Previous 24 Hours

Scroll right to see more
 ConditionsComfort  
Time TempWeatherWind HumidityBarometerVisibility
2:00 pm
Mon, Jul 6
68 °FPassing clouds.15 mph43%30.15 "HgN/A
1:30 pm66 °FPartly sunny.15 mph46%30.15 "HgN/A
1:00 pm68 °FPartly sunny.15 mph46%30.15 "HgN/A
12:30 pm64 °FPartly sunny.13 mph49%30.15 "HgN/A
12:00 pm64 °FBroken clouds.12 mph49%30.15 "HgN/A
11:30 am64 °FPartly sunny.15 mph52%30.15 "HgN/A
11:00 am63 °FBroken clouds.13 mph56%30.15 "HgN/A
10:30 am63 °FBroken clouds.14 mph52%30.15 "HgN/A
10:00 am59 °FPartly sunny.15 mph63%30.15 "HgN/A
9:30 am61 °FScattered clouds.12 mph63%30.15 "HgN/A
8:30 am57 °FPassing clouds.10 mph72%30.12 "HgN/A
8:00 am54 °FPassing clouds.10 mph82%30.12 "HgN/A
7:30 am54 °FPartly sunny.8 mph82%30.12 "HgN/A
7:00 am52 °FPartly sunny.8 mph88%30.12 "HgN/A
6:30 am52 °FOvercast.8 mph88%30.12 "HgN/A
6:00 am52 °FPartly sunny.8 mph88%30.09 "HgN/A
5:30 am52 °FPassing clouds.9 mph88%30.09 "HgN/A
5:00 am52 °FClear.9 mph82%30.09 "Hg10 mi
4:30 am52 °FClear.13 mph82%30.09 "Hg10 mi
4:00 am54 °FClear.12 mph77%30.09 "Hg10 mi
3:30 am54 °FClear.14 mph77%30.09 "Hg10 mi
3:00 am54 °FClear.14 mph77%30.09 "Hg10 mi
2:30 am55 °FPassing clouds.13 mph72%30.09 "HgN/A
2:00 am55 °FClear.15 mph72%30.09 "Hg10 mi
1:30 am57 °FClear.14 mph72%30.09 "Hg10 mi
1:00 am59 °FClear.16 mph72%30.09 "Hg10 mi
12:30 am59 °FPassing clouds.16 mph77%30.07 "HgN/A
12:00 am63 °FPartly cloudy.14 mph73%30.07 "HgN/A
11:30 pm
Sun, Jul 5
64 °FPartly cloudy.14 mph73%30.07 "HgN/A
11:00 pm64 °FPartly cloudy.13 mph73%30.07 "HgN/A
10:30 pm66 °FPassing clouds.15 mph73%30.07 "HgN/A
10:00 pm66 °FPartly cloudy.16 mph78%30.04 "HgN/A
9:30 pm68 °FPartly sunny.15 mph73%30.04 "HgN/A
9:00 pm70 °FPartly sunny.12 mph73%30.01 "HgN/A
8:30 pm72 °FPartly sunny.10 mph73%30.01 "HgN/A
8:00 pm72 °FBroken clouds.13 mph73%30.01 "HgN/A
7:30 pm72 °FBroken clouds.13 mph73%30.01 "HgN/A
7:00 pm73 °FBroken clouds.15 mph69%30.04 "HgN/A
6:30 pm72 °FBroken clouds.14 mph73%30.04 "HgN/A
6:00 pm70 °FBroken clouds.12 mph78%30.04 "HgN/A
5:30 pm72 °FPartly sunny.13 mph73%30.04 "HgN/A
5:00 pm72 °FPartly sunny.15 mph73%30.04 "HgN/A
4:30 pm73 °FMostly cloudy.15 mph65%30.04 "HgN/A
4:00 pm75 °FMostly cloudy.17 mph61%30.04 "HgN/A
3:30 pm73 °FMostly cloudy.15 mph65%30.04 "HgN/A
Weather by CustomWeather, © 2020

See weather overview